Theta_e
339 342 344 346 346 347 347 347 348 351 352 348 347 348 348 352 357 355 359 361 362 363 363 359 360 361 360 358 360 355 353 346 346 344 343 345 349 350 352 353 352 352 353
337 341 343 344 345 346 347 347 347 350 352 349 351 352 352 353 357 357 359 361 362 364 363 361 359 359 360 360 359 358 352 351 346 342 342 336 340 346 347 351 350 351 353
335 339 341 343 344 345 346 347 349 350 352 354 352 353 354 354 353 354 355 359 361 362 365 364 363 359 359 363 363 360 355 347 345 346 342 332 331 340 346 347 348 350 350
337 338 340 342 343 345 347 349 351 351 351 355 353 355 349 346 349 354 355 357 360 360 362 364 363 362 358 364 362 360 357 355 347 344 347 347 342 335 335 344 348 349 347
337 337 339 342 344 345 345 347 350 352 354 355 356 352 354 351 352 352 357 358 360 360 359 363 364 364 363 363 361 362 361 356 352 345 342 348 348 346 339 332 339 346 347
338 340 342 343 343 345 345 346 350 352 354 354 354 356 356 353 349 351 350 352 353 356 361 361 364 364 367 363 362 364 362 359 355 350 345 343 340 342 343 338 339 339 344
338 339 340 341 343 345 345 347 350 350 353 353 354 354 356 358 355 354 350 352 349 351 357 362 363 361 365 365 364 363 362 360 357 357 351 349 346 344 343 339 337 337 343
339 339 341 342 344 346 348 348 350 350 351 352 354 356 357 351 351 354 351 349 348 350 358 360 362 363 365 365 365 361 360 362 360 360 359 354 353 347 345 340 337 333 336
338 340 342 342 344 346 348 348 350 351 352 351 354 355 356 355 353 357 356 351 356 350 355 357 359 361 362 364 365 361 362 361 362 360 361 359 356 353 349 345 342 338 331
335 339 341 343 346 346 348 349 350 351 353 353 353 353 355 356 356 356 355 357 356 355 354 356 357 359 361 362 364 361 363 363 361 359 360 360 357 358 355 351 348 344 340
333 337 342 345 346 346 346 348 348 350 351 352 354 354 354 354 355 353 355 357 357 356 356 358 358 358 359 361 362 362 361 361 362 363 362 361 363 357 356 356 353 349 346
334 337 340 343 344 346 346 346 347 347 350 352 354 354 355 356 353 355 354 355 356 357 356 357 357 357 358 360 360 359 359 360 360 361 362 361 359 361 362 358 359 356 355
334 336 338 342 345 347 348 348 348 346 347 350 350 353 354 354 355 356 357 356 356 357 355 356 356 358 357 358 360 360 360 361 361 362 362 361 362 361 360 360 357 355 356
331 334 336 339 344 346 348 349 349 348 349 349 350 352 354 355 355 357 357 356 358 357 356 358 358 357 356 356 356 357 359 360 361 362 362 362 361 361 362 361 361 360 357
326 330 334 338 342 344 347 349 349 351 350 350 350 352 355 356 357 357 357 356 356 357 359 358 356 357 356 352 357 357 358 359 360 362 362 363 359 350 353 359 364 363 357
332 331 333 338 342 343 345 348 349 350 351 351 351 354 356 356 356 357 357 357 356 355 357 356 355 355 352 339 337 351 356 358 359 358 361 363 354 352 341 340 342 354 362
329 332 338 337 343 343 344 346 349 352 350 350 352 354 356 355 356 356 356 357 358 357 357 356 356 356 357 335 333 338 354 357 359 362 361 357 354 355 362 346 337 338 336
328 331 334 340 341 343 343 348 348 351 350 350 351 353 355 354 356 356 355 356 354 356 357 356 358 357 357 333 331 334 353 358 361 362 362 362 361 363 360 359 358 359 359
327 331 340 342 339 343 347 348 348 350 350 350 351 352 353 354 355 355 355 356 356 355 355 356 357 359 359 330 328 333 351 351 358 360 363 363 362 347 335 357 357 359 359
327 331 344 341 339 345 344 347 347 349 349 350 352 354 355 354 354 356 356 358 359 356 355 355 356 347 358 334 325 332 351 354 352 360 363 338 352 335 328 355 356 356 358
326 334 343 344 345 347 347 346 347 347 350 351 352 355 356 356 357 357 359 358 358 359 359 359 360 360 356 356 324 321 353 353 354 354 356 358 329 325 323 326 360 358 358
319 328 333 337 347 346 348 348 347 352 354 355 354 356 357 354 353 359 358 359 359 357 358 358 357 359 363 335 327 319 323 343 357 357 359 360 326 318 318 325 332 329 333
312 320 325 331 336 343 350 346 349 350 352 353 355 356 358 357 359 358 358 355 358 354 354 354 354 355 359 362 325 318 318 322 349 360 350 333 320 317 323 319 323 322 343
311 315 317 320 324 334 339 344 350 352 351 352 352 353 353 353 356 354 355 353 353 353 353 354 354 356 359 361 364 354 341 323 332 337 350 346 338 334 341 341 334 342 351
316 316 316 317 318 323 330 335 341 351 353 353 352 350 349 351 353 355 354 354 359 350 355 356 357 357 357 359 345 349 362 360 347 347 355 353 349 349 348 350 353 351 345
317 318 318 317 318 320 322 328 333 340 344 346 348 348 356 355 353 351 350 310 311 307 306 309 329 358 331 319 314 310 312 314 312 344 353 350 348 347 348 348 349 350 340
Wind_Speed
21 20 19 19 18 17 16 16 15 13 10 9 8 7 7 5 4 4 5 6 5 6 5 3 4 3 3 3 5 4 3 3 2 3 4 3 2 4 3 3 3 3 5
22 21 21 20 20 19 18 16 16 14 12 9 8 5 6 5 3 3 4 5 6 6 6 5 4 4 4 5 5 3 2 2 2 1 1 1 4 3 3 3 3 4 3
23 23 23 22 20 21 20 18 16 15 13 12 8 5 4 2 4 4 4 6 7 7 7 7 5 5 4 2 3 3 3 2 2 1 2 2 1 1 3 4 3 3 3
23 22 23 23 23 21 19 18 17 15 14 14 11 11 9 8 7 6 4 5 7 7 7 7 5 4 4 3 3 3 3 2 2 2 1 2 2 2 0 3 2 3 5
24 25 26 26 25 21 20 18 17 15 14 14 13 12 11 8 6 7 8 6 6 7 8 8 7 6 4 3 4 5 5 3 2 2 2 1 1 1 2 4 2 1 4
25 25 24 22 21 20 20 19 18 17 16 16 16 15 13 11 9 8 8 8 7 6 8 9 7 6 4 5 4 3 5 3 3 3 3 2 2 1 2 3 3 4 3
25 25 25 24 23 23 22 19 18 18 17 18 17 17 15 14 13 12 10 9 9 7 8 9 8 7 7 6 4 5 5 4 5 5 4 3 3 2 2 4 4 5 3
24 25 26 24 24 24 23 22 20 19 18 18 18 16 16 12 12 12 11 9 9 9 9 9 9 9 8 7 6 5 5 4 5 6 5 4 3 3 3 4 4 6 5
25 28 27 26 24 23 24 23 22 20 19 20 16 16 15 15 13 14 12 10 8 8 10 10 9 10 9 9 8 7 7 6 6 6 6 6 4 4 4 4 4 5 7
23 23 24 25 23 24 23 23 22 22 20 20 18 16 16 16 14 12 14 12 10 10 9 10 10 9 9 9 9 8 9 8 7 6 7 7 6 5 5 5 5 5 6
21 24 24 24 24 23 23 23 22 22 20 19 18 18 16 17 15 15 14 13 12 11 11 11 11 10 9 9 9 10 10 10 10 9 9 9 8 7 6 6 6 6 6
19 22 24 23 23 23 23 25 24 23 21 20 18 18 17 16 17 16 16 14 14 12 12 12 13 12 11 10 11 11 9 10 11 11 11 11 8 10 9 8 9 8 7
15 15 18 21 22 23 22 22 23 25 24 21 20 19 18 17 17 16 15 15 14 14 13 13 13 13 12 11 11 11 11 11 11 11 11 12 11 12 10 9 9 9 8
12 15 17 20 20 21 22 22 22 23 22 22 21 19 19 19 18 16 16 16 15 14 14 14 14 14 13 13 13 13 12 12 11 11 12 12 13 13 12 10 10 10 10
7 11 18 18 20 20 20 20 20 19 20 21 20 20 18 18 16 15 16 16 15 15 14 15 15 15 14 13 15 14 13 13 13 12 12 13 14 13 12 9 10 10 10
11 11 14 18 20 21 21 21 21 21 21 20 20 18 18 17 17 17 16 16 16 16 15 16 16 16 13 15 14 14 14 14 14 14 14 13 12 14 14 16 17 14 12
13 13 13 17 19 22 22 23 23 21 21 20 19 18 18 18 18 17 16 16 16 15 16 16 16 16 16 13 15 16 15 14 13 14 13 14 12 12 15 14 17 16 17
16 16 14 15 21 21 22 16 20 20 20 19 18 18 18 18 16 16 16 15 14 15 14 15 16 15 15 14 16 16 17 15 16 16 15 15 15 14 14 15 15 16 15
14 16 17 18 17 20 19 19 19 19 19 19 19 18 18 17 16 17 16 14 15 15 15 15 16 16 16 15 17 14 15 16 17 16 16 16 16 15 12 15 16 16 15
11 13 15 14 18 19 22 20 20 20 20 20 20 17 17 17 17 17 17 16 15 15 13 16 16 16 17 15 17 17 12 14 13 14 15 15 18 12 14 16 16 17 15
13 11 10 4 9 16 18 19 19 21 18 16 16 16 17 17 16 15 13 13 14 12 14 14 14 16 16 16 17 19 14 13 13 13 12 12 18 19 16 18 16 15 13
15 15 12 13 9 7 13 15 15 12 13 15 16 16 16 14 14 15 14 14 13 13 13 13 12 12 14 15 15 19 22 16 14 13 11 11 12 16 17 14 16 16 15
12 14 14 16 16 16 9 9 6 8 12 14 15 15 15 15 13 14 13 12 13 12 12 12 12 11 10 11 19 17 20 21 15 13 12 10 11 14 13 15 14 12 8
13 12 13 16 16 15 16 13 9 3 11 12 12 12 13 13 13 11 11 11 11 12 11 11 11 10 10 10 10 10 10 15 11 15 11 11 9 9 9 7 7 8 9
10 9 11 12 13 13 16 16 14 10 6 6 7 9 8 11 11 11 10 11 10 10 10 11 10 10 10 10 10 10 9 10 12 12 9 7 7 8 7 7 8 7 6
11 11 12 12 12 12 13 14 13 12 10 9 8 6 2 5 7 8 7 5 5 4 4 5 5 9 10 4 12 13 12 12 9 5 6 6 7 7 7 8 7 7 7
Wind_Direction
192 194 195 193 193 195 197 196 198 199 188 186 187 202 203 207 230 227 227 217 197 173 178 179 195 193 191 148 146 143 166 102 99 155 131 133 157 186 195 212 236 212 216
194 196 197 196 196 195 198 196 203 196 197 192 190 201 194 202 220 205 211 212 198 179 180 182 198 210 187 170 151 167 138 111 122 84 73 109 149 150 202 217 241 249 238
198 197 197 200 197 198 197 196 197 198 200 200 190 171 164 174 198 196 203 203 201 196 201 202 187 186 235 193 158 165 181 153 123 69 340 192 243 294 161 211 235 238 242
204 201 202 200 203 201 198 198 194 195 200 195 194 199 202 207 210 205 209 205 211 211 210 214 206 192 218 213 161 166 164 198 161 146 105 39 12 324 343 167 216 227 240
202 203 202 204 202 198 199 197 194 193 197 194 200 199 211 211 205 206 208 211 208 214 212 212 211 211 211 226 200 184 194 180 218 202 169 172 169 204 301 319 32 236 236
204 205 207 203 204 201 198 198 193 195 194 193 200 199 205 206 207 208 212 215 210 201 207 207 210 227 217 209 222 234 211 180 204 202 212 236 274 314 286 291 301 310 316
206 203 203 202 200 201 199 198 193 197 195 197 200 203 206 206 210 209 220 225 223 211 204 203 207 213 221 224 202 226 230 198 215 212 224 229 231 231 269 279 301 299 303
208 206 201 199 199 197 195 194 193 197 194 199 200 202 205 211 219 221 229 229 232 227 208 207 214 219 222 222 218 226 242 223 223 227 228 248 235 219 239 267 293 294 272
207 207 202 201 198 196 197 195 194 197 194 197 199 202 203 209 216 218 216 224 226 228 224 213 216 221 222 222 221 234 231 232 233 238 238 245 243 234 235 234 250 283 298
208 206 207 204 199 196 195 193 198 197 196 199 199 202 202 205 211 212 217 216 217 216 219 218 222 225 226 225 222 231 232 227 233 236 229 236 241 238 233 233 233 238 269
204 204 204 202 199 195 192 195 196 197 198 199 200 201 204 207 207 212 215 214 210 206 213 220 222 222 222 224 222 235 241 230 238 235 234 237 238 247 244 236 240 240 237
210 202 202 199 199 198 194 193 195 196 198 198 198 202 203 204 207 210 212 210 210 207 213 219 227 227 228 227 227 232 236 228 234 235 238 242 237 238 240 241 246 247 242
221 209 202 200 197 196 195 196 195 197 198 196 198 199 202 200 207 209 207 206 207 209 213 219 223 227 223 226 227 234 238 236 237 240 238 244 241 243 248 242 256 252 247
219 207 204 202 199 198 197 196 198 198 195 195 199 199 197 200 204 205 204 204 205 207 208 214 223 227 230 231 234 231 236 240 242 243 243 245 244 244 244 243 249 257 260
282 225 212 204 200 197 195 196 198 194 193 192 195 199 197 201 202 202 203 204 207 211 209 212 221 226 230 232 229 231 232 236 242 244 246 246 246 244 242 246 245 252 255
311 289 243 212 200 197 195 192 190 189 186 191 195 193 194 195 197 200 200 201 206 210 210 215 220 225 228 227 214 225 232 236 240 246 246 248 240 242 232 231 242 251 250
304 288 268 235 204 198 188 191 189 181 187 190 191 191 192 194 196 197 199 202 206 207 214 218 219 225 229 219 209 206 233 240 239 242 247 251 249 230 251 232 230 244 243
315 301 280 261 217 204 194 188 186 183 185 189 191 190 192 195 193 195 199 202 205 210 212 218 220 225 229 209 209 201 226 237 240 242 242 245 251 246 243 252 259 258 255
309 299 283 265 225 200 183 177 180 180 182 188 193 192 191 191 191 196 198 200 204 209 212 216 217 222 231 207 210 194 228 237 239 240 239 238 243 243 216 243 258 260 259
334 322 301 244 188 187 176 170 173 179 189 189 192 188 188 190 193 194 197 201 204 213 216 221 222 223 230 212 202 197 228 234 239 239 241 227 239 227 205 230 248 258 262
9 359 13 56 173 167 165 170 172 190 192 187 185 186 189 193 196 195 197 199 206 216 217 221 223 226 225 231 200 194 221 232 232 238 240 240 207 222 220 217 242 252 266
14 25 43 50 56 148 160 171 180 173 175 179 183 186 188 194 197 198 196 199 202 209 218 224 230 228 231 222 209 200 208 221 232 237 238 242 202 207 218 222 237 247 251
358 26 36 55 52 50 79 128 136 173 179 181 185 188 188 192 194 193 197 201 205 215 216 220 226 231 226 229 213 207 207 222 231 239 242 247 213 210 223 228 230 228 240
357 9 29 43 44 48 57 57 48 137 186 190 190 190 193 191 195 197 200 205 208 212 220 219 224 225 227 225 229 212 213 227 224 248 248 243 243 219 226 234 219 227 232
348 7 21 36 40 39 43 41 41 50 116 151 175 194 188 190 198 205 203 208 213 216 215 222 225 225 222 225 220 219 213 214 211 219 228 227 211 227 220 222 224 215 209
347 2 21 27 28 36 41 36 32 32 44 63 75 58 132 155 206 207 202 82 41 33 342 314 271 237 244 237 200 212 224 223 156 188 214 203 207 217 215 218 217 212 200